AUA51 LOWW-KLAX

Flight info

Callsign AUA51
Flight time N/A
Altitude 34000
Route BUWUT DCT DITIS DCT OKG DCT VELIS DCT SWALM DCT ARPEG DCT RAVLO Y70 OTBED L60 PENIL M144 BAGSO DCT MCM DCT REVNU DCT PIKIL/M084F340 DCT 57N020W 57N030W 57N040W 56N050W DCT JANJO/N0485F340 DCT DENSO DCT AGLOL DCT MERNU DCT XEXUL DCT BLUOX DCT RAP J158 DDY J107 NORRA J100 LAS Q70 HAILO DCT KOPLE BOGET2
Aircraft B772/H-SDE2E3FGHIJ5LORVWXY/LB1D1

Departure

Time N/A
Airport Vienna International Airport (LOWW)

Arrival

Time 2026-05-04 16:16
Airport Los Angeles International Airport (KLAX)
Time Latitude Longitude Altitude Speed Heading
2026-05-04 14:25 41.94638 -108.38689 35872 ft 453 kts 236°
2026-05-04 14:26 41.92742 -108.42063 36235 ft 452 kts 236°
2026-05-04 14:26 41.90853 -108.45423 36585 ft 451 kts 236°
2026-05-04 14:26 41.88964 -108.48778 36941 ft 450 kts 236°
2026-05-04 14:26 41.87082 -108.52115 37355 ft 447 kts 236°
2026-05-04 14:27 41.85213 -108.55426 37782 ft 444 kts 236°
2026-05-04 14:27 41.83354 -108.58715 38175 ft 442 kts 236°
2026-05-04 14:27 41.81501 -108.61991 38519 ft 440 kts 236°
2026-05-04 14:27 41.79652 -108.65256 38750 ft 440 kts 236°
2026-05-04 14:28 41.77801 -108.68522 38926 ft 441 kts 236°
2026-05-04 14:28 41.75946 -108.71794 39119 ft 441 kts 236°
2026-05-04 14:28 41.74088 -108.75064 39380 ft 441 kts 236°
2026-05-04 14:28 41.72229 -108.78333 39587 ft 441 kts 236°
2026-05-04 14:29 41.68506 -108.84869 39868 ft 444 kts 236°
2026-05-04 14:29 41.64758 -108.91437 39974 ft 444 kts 236°
2026-05-04 14:30 41.61028 -108.97957 39993 ft 440 kts 236°
2026-05-04 14:31 41.54890 -109.07026 40001 ft 439 kts 229°
2026-05-04 14:32 41.46215 -109.18407 39817 ft 436 kts 229°
2026-05-04 14:32 41.41902 -109.24087 39824 ft 436 kts 229°
2026-05-04 14:33 41.37580 -109.29776 39826 ft 437 kts 229°
2026-05-04 14:33 41.33245 -109.35468 39816 ft 438 kts 230°
2026-05-04 14:34 41.28906 -109.41153 39831 ft 438 kts 229°
2026-05-04 14:34 41.24558 -109.46841 39815 ft 438 kts 230°
2026-05-04 14:35 41.20207 -109.52522 39824 ft 438 kts 230°
2026-05-04 14:35 41.15855 -109.58190 39820 ft 438 kts 230°
2026-05-04 14:36 41.11507 -109.63843 39826 ft 437 kts 229°
2026-05-04 14:36 41.07162 -109.69481 39827 ft 437 kts 229°
2026-05-04 14:37 41.02814 -109.75112 39824 ft 437 kts 229°
2026-05-04 14:37 40.98468 -109.80730 39826 ft 437 kts 229°
2026-05-04 14:38 40.94124 -109.86334 39831 ft 436 kts 229°
2026-05-04 14:38 40.89778 -109.91927 39842 ft 436 kts 229°
2026-05-04 14:39 40.85430 -109.97517 39851 ft 436 kts 229°
2026-05-04 14:39 40.81085 -110.03092 39852 ft 435 kts 230°
2026-05-04 14:40 40.74568 -110.11427 39853 ft 435 kts 229°
2026-05-04 14:40 40.70230 -110.16959 39862 ft 434 kts 229°
2026-05-04 14:41 40.65905 -110.22472 39882 ft 431 kts 229°
2026-05-04 14:42 40.57287 -110.33426 39845 ft 430 kts 229°
2026-05-04 14:42 40.52996 -110.38858 39874 ft 427 kts 229°
2026-05-04 14:43 40.48716 -110.44270 39857 ft 427 kts 229°
2026-05-04 14:43 40.44442 -110.49666 39860 ft 426 kts 229°
2026-05-04 14:44 40.40166 -110.55052 39854 ft 425 kts 229°
2026-05-04 14:44 40.35895 -110.60426 39863 ft 425 kts 229°
2026-05-04 14:45 40.31619 -110.65792 39873 ft 426 kts 229°
2026-05-04 14:45 40.27335 -110.71158 39856 ft 426 kts 229°
2026-05-04 14:46 40.23083 -110.76474 39873 ft 425 kts 229°
2026-05-04 14:46 40.18773 -110.81854 39858 ft 425 kts 229°
2026-05-04 14:47 40.14492 -110.87189 39884 ft 425 kts 229°
2026-05-04 14:47 40.10208 -110.92516 39854 ft 425 kts 229°
2026-05-04 14:48 40.05932 -110.97822 39889 ft 424 kts 229°
2026-05-04 14:48 40.01674 -111.03102 39865 ft 425 kts 229°
2026-05-04 14:49 39.97382 -111.08410 39864 ft 425 kts 229°
2026-05-04 14:49 39.93087 -111.13712 39871 ft 425 kts 229°
2026-05-04 14:50 39.88789 -111.19009 39867 ft 426 kts 229°
2026-05-04 14:50 39.84484 -111.24304 39867 ft 425 kts 229°
2026-05-04 14:51 39.80179 -111.29591 39865 ft 425 kts 229°
2026-05-04 14:51 39.75872 -111.34870 39839 ft 425 kts 229°
2026-05-04 14:52 39.71569 -111.40137 39852 ft 425 kts 228°
2026-05-04 14:52 39.67259 -111.45403 39849 ft 425 kts 229°
2026-05-04 14:53 39.62920 -111.50689 39856 ft 425 kts 228°
2026-05-04 14:53 39.58609 -111.55932 39855 ft 425 kts 228°
2026-05-04 14:54 39.54296 -111.61172 39848 ft 425 kts 228°
2026-05-04 14:54 39.49976 -111.66411 39836 ft 425 kts 228°
2026-05-04 14:55 39.45664 -111.71634 39846 ft 425 kts 228°
2026-05-04 14:55 39.41334 -111.76862 39856 ft 425 kts 228°
2026-05-04 14:56 39.37003 -111.82087 39841 ft 426 kts 228°
2026-05-04 14:56 39.32659 -111.87317 39852 ft 427 kts 227°
2026-05-04 14:57 39.28305 -111.92549 39845 ft 428 kts 227°
2026-05-04 14:57 39.23955 -111.97770 39856 ft 426 kts 227°
2026-05-04 14:58 39.19611 -112.02974 39830 ft 426 kts 227°
2026-05-04 14:58 39.15266 -112.08170 39862 ft 426 kts 227°
2026-05-04 14:59 39.10924 -112.13345 39889 ft 425 kts 227°
2026-05-04 15:00 39.04421 -112.21087 39929 ft 425 kts 227°
2026-05-04 15:00 39.00077 -112.26235 39963 ft 424 kts 227°
2026-05-04 15:01 38.93600 -112.33909 39962 ft 424 kts 227°
2026-05-04 15:01 38.89266 -112.39033 39954 ft 423 kts 227°
2026-05-04 15:02 38.84943 -112.44135 39939 ft 422 kts 227°
2026-05-04 15:02 38.80626 -112.49221 39903 ft 421 kts 227°
2026-05-04 15:03 38.76320 -112.54286 39823 ft 420 kts 227°
2026-05-04 15:03 38.72017 -112.59338 39803 ft 420 kts 227°
2026-05-04 15:04 38.67717 -112.64378 39818 ft 419 kts 227°
2026-05-04 15:04 38.63410 -112.69419 39835 ft 419 kts 227°
2026-05-04 15:05 38.59117 -112.74432 39854 ft 417 kts 227°
2026-05-04 15:05 38.54844 -112.79415 39882 ft 414 kts 227°
2026-05-04 15:06 38.50593 -112.84367 39922 ft 413 kts 227°
2026-05-04 15:07 38.44240 -112.91748 39960 ft 411 kts 227°
2026-05-04 15:07 38.40018 -112.96646 39962 ft 410 kts 227°
2026-05-04 15:08 38.36441 -113.00687 39962 ft 412 kts 224°
2026-05-04 15:08 38.31689 -113.04855 39953 ft 417 kts 219°
2026-05-04 15:09 38.26795 -113.08806 39918 ft 417 kts 219°
2026-05-04 15:09 38.21906 -113.12781 39887 ft 417 kts 219°
2026-05-04 15:10 38.14561 -113.18746 39842 ft 418 kts 219°
2026-05-04 15:11 38.07204 -113.24710 39808 ft 417 kts 219°
2026-05-04 15:11 38.02330 -113.28649 39799 ft 414 kts 219°
2026-05-04 15:12 37.97526 -113.32529 39804 ft 411 kts 219°
2026-05-04 15:12 37.92723 -113.36404 39840 ft 408 kts 219°
2026-05-04 15:13 37.87914 -113.40268 39851 ft 406 kts 219°
2026-05-04 15:13 37.83140 -113.44076 39795 ft 405 kts 219°
2026-05-04 15:14 37.78416 -113.47832 39808 ft 403 kts 219°
2026-05-04 15:14 37.73679 -113.51593 39814 ft 401 kts 219°
2026-05-04 15:15 37.68958 -113.55340 39816 ft 400 kts 219°
2026-05-04 15:15 37.64210 -113.59105 39825 ft 400 kts 219°
2026-05-04 15:16 37.57128 -113.64711 39783 ft 401 kts 220°
2026-05-04 15:17 37.50065 -113.70285 39820 ft 398 kts 220°
2026-05-04 15:17 37.43045 -113.75822 39832 ft 397 kts 220°
2026-05-04 15:18 37.38364 -113.79513 39817 ft 398 kts 219°
2026-05-04 15:19 37.31318 -113.85040 39757 ft 398 kts 220°
2026-05-04 15:19 37.24294 -113.90540 39791 ft 396 kts 219°
2026-05-04 15:20 37.19621 -113.94176 39794 ft 395 kts 220°
2026-05-04 15:20 37.14963 -113.97811 39786 ft 394 kts 220°
2026-05-04 15:21 37.10313 -114.01438 39782 ft 394 kts 220°
2026-05-04 15:22 37.03348 -114.06856 39764 ft 392 kts 220°
2026-05-04 15:22 36.96421 -114.12234 39768 ft 390 kts 219°
2026-05-04 15:23 36.91818 -114.15802 39770 ft 389 kts 219°
2026-05-04 15:23 36.87221 -114.19359 39776 ft 389 kts 219°
2026-05-04 15:24 36.78064 -114.26536 39764 ft 385 kts 223°
2026-05-04 15:25 36.73956 -114.30764 39755 ft 381 kts 228°
2026-05-04 15:26 36.68452 -114.37856 39759 ft 380 kts 231°
2026-05-04 15:26 36.63001 -114.45071 39758 ft 382 kts 231°
2026-05-04 15:27 36.57507 -114.52288 39746 ft 383 kts 231°
2026-05-04 15:28 36.52002 -114.59497 39755 ft 383 kts 231°
2026-05-04 15:29 36.46496 -114.66695 39723 ft 383 kts 231°
2026-05-04 15:30 36.32142 -114.81507 39790 ft 397 kts 213°
2026-05-04 15:31 36.24056 -114.84449 39808 ft 405 kts 205°
2026-05-04 15:32 36.10504 -114.88750 39863 ft 402 kts 206°
2026-05-04 15:34 35.96970 -114.93136 39897 ft 407 kts 205°
2026-05-04 15:34 35.88734 -114.95793 39892 ft 408 kts 205°
2026-05-04 15:35 35.80472 -114.98454 39830 ft 410 kts 205°
2026-05-04 15:36 35.72196 -115.01115 39854 ft 410 kts 205°
2026-05-04 15:36 35.66684 -115.02883 39875 ft 409 kts 205°
2026-05-04 15:37 35.61187 -115.04647 39874 ft 407 kts 205°
2026-05-04 15:37 35.55704 -115.06400 39882 ft 407 kts 205°
2026-05-04 15:38 35.50588 -115.08843 39881 ft 384 kts 220°
2026-05-04 15:38 35.46695 -115.13175 39912 ft 377 kts 231°
2026-05-04 15:39 35.43100 -115.17954 39897 ft 384 kts 232°
2026-05-04 15:40 35.37578 -115.25213 39900 ft 391 kts 231°
2026-05-04 15:40 35.33843 -115.30080 39913 ft 390 kts 231°
2026-05-04 15:41 35.30167 -115.34856 39924 ft 382 kts 231°
2026-05-04 15:41 35.26539 -115.39566 39939 ft 379 kts 231°
2026-05-04 15:42 35.22924 -115.44255 39945 ft 378 kts 231°
2026-05-04 15:42 35.19309 -115.48938 39943 ft 379 kts 231°
2026-05-04 15:43 35.15683 -115.53630 39956 ft 380 kts 231°
2026-05-04 15:43 35.12037 -115.58336 39938 ft 382 kts 231°
2026-05-04 15:44 35.08368 -115.63035 39950 ft 383 kts 231°
2026-05-04 15:44 35.04685 -115.67737 39957 ft 383 kts 230°
2026-05-04 15:45 35.00996 -115.72444 39959 ft 384 kts 230°
2026-05-04 15:45 34.97302 -115.77156 39962 ft 384 kts 230°
2026-05-04 15:46 34.93603 -115.81865 39954 ft 385 kts 230°
2026-05-04 15:46 34.90525 -115.85778 39950 ft 385 kts 230°
2026-05-04 15:47 34.86821 -115.90484 39936 ft 384 kts 230°
2026-05-04 15:47 34.83125 -115.95174 39951 ft 383 kts 230°
2026-05-04 15:48 34.79431 -115.99855 39924 ft 383 kts 230°
2026-05-04 15:48 34.73901 -116.06872 39939 ft 383 kts 230°
2026-05-04 15:49 34.70222 -116.11561 39932 ft 383 kts 230°
2026-05-04 15:49 34.66541 -116.16246 39935 ft 383 kts 230°
2026-05-04 15:50 34.62859 -116.20926 39935 ft 383 kts 230°
2026-05-04 15:50 34.59173 -116.25601 39933 ft 384 kts 230°
2026-05-04 15:51 34.55556 -116.30179 39911 ft 362 kts 230°
2026-05-04 15:51 34.53836 -116.32349 39607 ft 354 kts 230°
2026-05-04 15:51 34.52144 -116.34490 39109 ft 350 kts 231°
2026-05-04 15:52 34.50463 -116.36619 38468 ft 349 kts 231°
2026-05-04 15:52 34.48782 -116.38749 37649 ft 350 kts 231°
2026-05-04 15:52 34.47095 -116.40883 36843 ft 351 kts 230°
2026-05-04 15:52 34.45402 -116.43020 36067 ft 352 kts 230°
2026-05-04 15:53 34.43701 -116.45164 35244 ft 354 kts 229°
2026-05-04 15:53 34.42037 -116.47371 34359 ft 356 kts 233°
2026-05-04 15:53 34.40701 -116.49892 33417 ft 359 kts 242°
2026-05-04 15:53 34.39618 -116.52635 32447 ft 363 kts 242°
2026-05-04 15:54 34.38496 -116.55423 31496 ft 376 kts 241°
2026-05-04 15:54 34.37307 -116.58330 30559 ft 390 kts 240°
2026-05-04 15:54 34.36128 -116.61206 30330 ft 373 kts 240°
2026-05-04 15:54 34.34996 -116.63959 30151 ft 357 kts 240°
2026-05-04 15:55 34.33910 -116.66592 29980 ft 342 kts 240°
2026-05-04 15:55 34.32866 -116.69135 29512 ft 335 kts 240°
2026-05-04 15:55 34.31851 -116.71651 29033 ft 331 kts 240°
2026-05-04 15:55 34.30847 -116.74152 28552 ft 331 kts 241°
2026-05-04 15:56 34.29836 -116.76666 28055 ft 334 kts 241°
2026-05-04 15:56 34.28825 -116.79186 27563 ft 333 kts 241°
2026-05-04 15:56 34.27815 -116.81698 27056 ft 332 kts 241°
2026-05-04 15:56 34.26805 -116.84201 26568 ft 331 kts 241°
2026-05-04 15:57 34.25797 -116.86701 26070 ft 330 kts 241°
2026-05-04 15:57 34.24794 -116.89190 25622 ft 329 kts 241°
2026-05-04 15:57 34.23791 -116.91673 25123 ft 328 kts 242°
2026-05-04 15:57 34.22790 -116.94148 24626 ft 327 kts 242°
2026-05-04 15:58 34.21791 -116.96615 24137 ft 326 kts 242°
2026-05-04 15:58 34.20836 -116.99098 23664 ft 326 kts 245°
2026-05-04 15:58 34.20085 -117.01692 23119 ft 327 kts 248°
2026-05-04 15:58 34.19424 -117.04300 22611 ft 322 kts 250°
2026-05-04 15:59 34.18773 -117.06876 22112 ft 320 kts 249°
2026-05-04 15:59 34.18105 -117.09425 21616 ft 316 kts 249°
2026-05-04 15:59 34.17423 -117.11942 21173 ft 315 kts 249°
2026-05-04 15:59 34.16745 -117.14447 20704 ft 313 kts 249°
2026-05-04 16:00 34.16068 -117.16936 20245 ft 311 kts 249°
2026-05-04 16:00 34.15382 -117.19427 19865 ft 315 kts 249°
2026-05-04 16:00 34.14689 -117.21937 19386 ft 315 kts 249°
2026-05-04 16:00 34.13999 -117.24442 18918 ft 314 kts 250°
2026-05-04 16:01 34.13311 -117.26942 18444 ft 314 kts 250°
2026-05-04 16:01 34.12622 -117.29443 17922 ft 313 kts 250°
2026-05-04 16:01 34.11936 -117.31931 17423 ft 312 kts 250°
2026-05-04 16:01 34.11253 -117.34407 16946 ft 310 kts 250°
2026-05-04 16:02 34.10572 -117.36867 16473 ft 308 kts 250°
2026-05-04 16:02 34.09929 -117.39345 15992 ft 311 kts 251°
2026-05-04 16:02 34.08696 -117.44334 15043 ft 310 kts 252°
2026-05-04 16:03 34.08076 -117.46822 14570 ft 309 kts 251°
2026-05-04 16:03 34.07455 -117.49299 14186 ft 307 kts 252°
2026-05-04 16:03 34.06927 -117.51756 14028 ft 300 kts 256°
2026-05-04 16:03 34.06502 -117.54246 14002 ft 305 kts 257°
2026-05-04 16:04 34.06098 -117.56744 13994 ft 302 kts 257°
2026-05-04 16:04 34.05300 -117.61657 13310 ft 297 kts 257°
2026-05-04 16:04 34.04896 -117.64101 12768 ft 298 kts 257°
2026-05-04 16:05 34.04486 -117.66555 12268 ft 299 kts 257°
2026-05-04 16:05 34.04073 -117.69011 11800 ft 298 kts 257°
2026-05-04 16:05 34.03277 -117.73730 11579 ft 276 kts 257°
2026-05-04 16:06 34.02896 -117.75975 11315 ft 271 kts 257°
2026-05-04 16:06 34.01905 -117.81781 10548 ft 264 kts 257°
2026-05-04 16:07 34.01410 -117.84678 10067 ft 266 kts 257°
2026-05-04 16:07 34.00293 -117.91192 9067 ft 262 kts 257°
2026-05-04 16:08 33.99921 -117.93358 8566 ft 267 kts 257°
2026-05-04 16:08 33.98740 -118.00075 6968 ft 267 kts 258°
2026-05-04 16:09 33.98026 -118.04280 5797 ft 252 kts 258°
2026-05-04 16:09 33.97313 -118.08462 4954 ft 257 kts 259°
2026-05-04 16:10 33.96586 -118.12674 4270 ft 253 kts 258°
2026-05-04 16:11 33.95804 -118.18174 3411 ft 196 kts 263°
2026-05-04 16:11 33.95641 -118.19751 3156 ft 187 kts 262°
2026-05-04 16:12 33.95171 -118.24339 2418 ft 180 kts 262°
2026-05-04 16:12 33.94739 -118.28540 1724 ft 147 kts 261°
2026-05-04 16:13 33.94510 -118.30773 1364 ft 130 kts 261°
2026-05-04 16:13 33.94290 -118.32928 1022 ft 127 kts 262°
2026-05-04 16:14 33.94078 -118.34969 685 ft 122 kts 262°
2026-05-04 16:14 33.93870 -118.36987 353 ft 120 kts 263°
2026-05-04 16:15 33.93596 -118.39646 101 ft 70 kts 263°
2026-05-04 16:16 33.93551 -118.40499 102 ft 31 kts 292°
2026-05-04 16:16 33.93603 -118.40871 100 ft 7 kts 309°
2026-05-04 16:17 33.93746 -118.40910 100 ft 12 kts 349°
2026-05-04 16:18 33.93850 -118.41159 99 ft 14 kts 349°
2026-05-04 16:18 33.93945 -118.41176 100 ft 14 kts 353°
2026-05-04 16:19 33.94229 -118.41214 98 ft 14 kts 353°
2026-05-04 16:19 33.94372 -118.41232 98 ft 6 kts 15°
2026-05-04 16:20 33.94394 -118.41138 98 ft 1 kts 84°
2026-05-04 16:20 33.94396 -118.41122 98 ft 1 kts 84°
2026-05-04 16:21 33.94396 -118.41120 98 ft 0 kts 84°